Location: Bear Trap Landing
(45.2437°N, 67.7928°W)
Time: 14:58:56
(UTC+00:00)

Envisat - Pass Details

Date: 05 March 2021
Orbit: 764 x 766 km, 98.1° (Epoch: 17 April)

Event Time Altitude Azimuth Distance (km) Brightness Sun altitude
Rises 10:24:10 0° 12° (NNE) 3,244 6.4 -7.4°
Reaches altitude 10° 10:26:29 10° 11° (NNE) 2,313 5.6 -7.0°
Maximum altitude 10:31:35 81° 285° (WNW) 780 3.0 -6.1°
Drops below altitude 10° 10:36:39 10° 199° (SSW) 2,295 5.3 -5.2°
Sets 10:38:56 0° 198° (SSW) 3,216 6.1 -4.8°
